Lid_Strength_Index
-1 -1 0 3 11 11 13 12 9 9 8 6 5 6 7 6 8 12 2 1 0 0 -1 -1 -1 -2 -1 -1 -1 -1 -1 -1 -1 -1 -1 -1 -1 -2 -1 -1 -1 -2 -2 -2 -2 -2 -2 -1 -1
-0 0 2 5 13 15 13 9 10 8 6 5 5 5 7 8 4 4 3 0 -0 -0 -1 -1 -2 -1 -2 -1 -2 -2 -1 -1 -1 -1 -1 -1 -1 -1 -1 -1 -1 -2 -2 -2 -2 -2 -2 -2 -1
0 0 6 10 12 14 14 10 8 7 5 5 7 5 6 7 4 3 1 0 -0 -0 -1 -1 -1 -2 -1 -1 -1 -2 -1 -1 -1 -1 -2 -2 -1 -1 -1 -2 -1 -2 -2 -2 -2 -2 -2 -2 -1
2 3 5 12 13 11 10 9 8 7 5 5 5 8 4 2 3 1 0 -0 0 -0 -1 -1 -2 -2 -1 -1 -2 -1 -1 -1 -1 -1 -1 -1 -1 -1 -1 -1 -2 -2 -2 -2 -2 -2 -2 -2 -1
2 5 11 13 12 11 8 8 7 8 7 6 6 8 6 3 1 0 0 0 0 -0 -1 -1 -2 -2 -1 -1 -1 -1 -1 -1 -1 -1 -1 -1 -1 -2 -2 -1 -2 -2 -2 -2 -2 -2 -2 -2 -1
7 6 13 15 13 10 8 6 7 8 7 7 7 7 6 2 2 1 0 0 -0 0 -0 -1 -1 -2 -2 -1 -1 -2 -1 -1 -1 -2 -2 -2 -2 -2 -2 -2 -2 -2 -2 -2 -2 -2 -2 -2 -1
7 10 12 13 12 11 9 6 7 8 8 8 5 8 5 3 1 1 0 0 0 -0 -0 -1 -1 -1 -1 -1 -1 -1 -1 -1 -2 -2 -2 -2 -2 -2 -2 -2 -2 -2 -2 -2 -2 -2 -2 -1 -1
5 8 11 12 12 11 7 7 6 7 8 4 4 8 8 3 1 1 0 0 1 -0 -0 -0 -1 -1 -1 -1 -1 -1 -2 -2 -2 -2 -2 -2 -2 -2 -2 -2 -2 -2 -2 -2 -2 -2 -2 -1 -2
3 10 12 12 11 11 7 8 5 4 6 5 4 5 3 2 1 1 1 1 1 0 0 -0 -0 -1 -1 -1 -1 -1 -2 -2 -2 -2 -2 -2 -1 -1 -1 -2 -2 -2 -2 -2 -2 -2 -1 -1 -1
7 10 10 8 7 9 8 7 6 7 6 6 5 3 2 2 2 3 3 3 2 1 1 -0 -0 -0 -1 -1 -1 -1 -1 -1 -1 -1 -1 -2 -1 -2 -1 -2 -2 -2 -2 -2 -2 -2 -2 -1 -1
6 9 7 7 6 6 7 6 5 7 8 6 6 5 3 3 3 3 2 2 2 1 0 0 -0 -1 -1 -1 -1 -1 -1 -1 -1 -1 -1 -2 -2 -2 -2 -1 -2 -1 -2 -1 -1 -1 -0 -0 -0
7 6 6 6 6 6 8 7 7 7 7 5 4 4 4 4 3 3 2 2 2 1 1 0 -0 -0 -1 -1 -1 0 -1 -0 -1 -1 -2 -2 -1 -2 -1 -1 -1 -1 -1 -1 -1 -1 -0 -1 -1
6 6 5 5 6 6 6 8 8 7 5 4 3 4 4 4 3 2 2 1 1 1 1 0 -0 -0 -0 -1 -2 -0 -1 -1 -1 -1 -0 -1 -1 -1 -2 -0 -1 -2 -1 -1 -1 -1 -1 -1 -1
5 5 5 5 6 6 7 8 7 6 4 4 4 4 4 4 3 2 2 2 1 1 1 0 0 -0 -1 -0 -0 -0 -1 -0 -1 -1 -1 -1 -2 -1 -1 -1 -0 -1 -1 -2 -1 -1 -1 -0 -1
5 7 5 5 6 6 6 8 8 6 5 5 5 4 4 3 3 3 2 2 1 1 0 0 0 -0 -0 -1 -1 -1 -1 -1 -1 -1 -2 -2 -3 -3 -1 -1 -0 -1 -2 -2 -2 -1 -1 -0 -0
7 6 9 6 6 6 6 11 7 6 7 6 5 5 4 4 3 2 2 1 1 1 1 0 -0 -0 -0 -1 -1 -1 -1 -1 -1 -1 -2 -2 -2 -3 -1 -1 -1 -1 -2 -1 -0 -0 -0 0 0
7 9 9 8 6 7 7 10 8 6 7 6 6 5 5 4 3 2 2 1 1 1 1 1 0 0 -0 -0 -1 -0 -0 -1 -1 -2 -1 -2 -2 -2 -1 -1 -1 -1 0 -0 -1 -0 -0 0 0
9 9 8 8 6 7 8 9 8 7 7 6 6 5 5 5 4 2 2 1 1 1 1 0 0 0 -0 -0 -1 -1 -0 -1 -1 -1 -1 -2 -2 -1 -1 -1 -2 -2 -0 -0 -0 1 -0 0 1
7 8 8 7 6 7 9 11 9 7 7 7 6 5 5 5 3 2 2 1 1 1 1 1 1 0 0 1 1 1 1 1 0 -0 -1 -2 -2 -1 -0 -1 -1 -1 -0 -0 -1 0 1 1 0
7 8 8 6 6 7 10 11 9 8 8 7 6 5 5 4 4 3 2 2 1 1 1 1 1 0 0 0 0 0 1 0 0 -0 -1 -2 -2 -2 -1 -1 -1 -0 -0 -0 -0 0 1 1 0
7 8 8 8 6 6 7 12 11 8 7 7 5 5 4 4 4 3 3 2 2 2 1 1 1 1 0 -0 0 -0 -1 0 1 0 0 -1 -1 -2 -1 -2 -1 -1 -1 0 -0 -0 1 2 1
9 6 7 7 9 10 7 13 12 10 9 9 8 5 5 4 4 3 3 3 2 2 1 1 1 1 0 -0 0 0 1 2 1 1 0 -0 -1 -1 -1 -2 -1 -2 -0 0 -0 -0 0 1 2
8 6 7 7 8 9 9 11 9 9 11 10 8 5 5 4 4 4 3 2 2 1 1 1 1 1 0 0 0 1 1 1 0 0 1 0 -1 -1 -1 -1 -1 -1 -1 -0 -1 -1 -0 0 1
5 6 7 7 8 11 9 10 10 10 10 9 8 7 5 4 4 3 3 2 2 1 1 1 1 1 1 0 0 1 1 1 1 1 1 1 0 -0 -1 -1 -1 -1 -1 -0 -0 -1 -0 -0 0
6 8 12 12 12 13 9 10 9 7 7 8 8 7 6 4 4 4 3 3 2 2 2 1 2 2 1 1 1 1 1 1 1 1 1 1 1 1 0 -0 -0 -0 -1 -1 -1 -1 -0 -0 0
7 8 11 15 14 12 8 11 9 6 5 6 6 6 6 4 4 3 3 3 3 2 2 2 2 2 1 1 1 0 0 1 1 0 0 0 0 0 -0 -0 -0 -1 -1 -1 -1 -0 0 -0 0
8 9 7 10 9 11 10 8 6 5 6 5 6 6 7 5 4 4 3 3 3 2 2 2 2 2 1 1 1 1 1 1 1 0 -0 0 -0 -0 -0 -0 -0 -0 -0 -1 -0 0 0 -0 -0
7 6 10 10 14 15 11 10 10 7 6 6 7 6 6 5 5 4 3 3 2 2 2 1 1 2 1 1 1 1 1 0 0 0 0 0 -0 -0 0 0 -0 -0 -0 -0 -0 0 -0 0 0
8 9 9 9 10 13 14 11 6 6 6 5 7 6 5 5 5 5 4 2 2 2 2 2 2 2 2 1 1 1 1 1 0 0 0 0 -0 -0 -0 -0 0 0 0 -0 0 0 0 1 1
7 8 8 12 13 11 11 11 6 5 5 5 4 4 5 5 5 5 5 4 2 2 2 2 2 2 1 1 1 1 1 1 1 1 0 0 0 -0 -0 -0 0 0 0 -0 0 1 0 1 1